{"data":{"norad_id":68142,"intl_designator":"2026-049A","name":"STARLINK-36604","alt_names":[],"object_type":"PAYLOAD","status":"ACTIVE","operator":null,"country":"US","launch_date":"2026-03-13","launch_site_code":"AFWTR","launch_vehicle":null,"mission":null,"orbit_class":"UNKNOWN","rcs_meters":null,"size_class":null,"mass_kg":null,"dimensions":null,"purposes":["comms"],"wikipedia_slug":null,"has_3d_model":false,"image_url":null,"decayed_at":null,"tle_current":{"epoch":"2026-09-20T04:00:03.000096Z","epoch_age_seconds":84309,"freshness":"FRESH","line1":"1 68142U 26049A   26263.16670139 -.00043808  00000+0 -13612-2 0  9993","line2":"2 68142  97.2846 283.0809 0000529  36.6608  85.0238 15.33476398  5868","mean_motion":15.33476398,"eccentricity":5.29e-5,"inclination_deg":97.2846,"raan_deg":283.0809,"arg_perigee_deg":36.6608,"mean_anomaly_deg":85.0238,"bstar":-0.0013612,"rev_number":586,"period_min":93.904281922962,"perigee_km":465.08773197498,"apogee_km":465.81178345395,"semimajor_km":6843.5867577145,"source":"CELESTRAK","updated_at":"2026-09-20T09:00:43.790935Z"}}}